TimeCST,TemperatureF,Dew PointF,Humidity,Sea Level PressureIn,VisibilityMPH,Wind Direction,Wind SpeedMPH,Gust SpeedMPH,PrecipitationIn,Events,Conditions,WindDirDegrees,DateUTC
12:53 AM,34.0,26.1,73,30.22,10.0,South,12.7,24.2,N/A,,Clear,180,2013-01-10 06:53:00
1:53 AM,34.0,26.1,73,30.20,10.0,South,10.4,21.9,N/A,,Clear,190,2013-01-10 07:53:00
2:53 AM,34.0,25.0,70,30.18,10.0,South,12.7,23.0,N/A,,Clear,170,2013-01-10 08:53:00
3:53 AM,33.1,25.0,72,30.16,10.0,South,11.5,-,N/A,,Clear,170,2013-01-10 09:53:00
4:53 AM,34.0,26.1,73,30.12,10.0,South,8.1,-,N/A,,Clear,190,2013-01-10 10:53:00
5:53 AM,37.9,26.1,62,30.09,10.0,South,10.4,21.9,N/A,,Clear,180,2013-01-10 11:53:00
6:53 AM,36.0,25.0,64,30.08,10.0,South,8.1,-,N/A,,Clear,190,2013-01-10 12:53:00
7:53 AM,35.1,25.0,67,30.06,10.0,South,9.2,-,N/A,,Partly Cloudy,180,2013-01-10 13:53:00
8:53 AM,36.0,26.1,67,30.04,10.0,South,10.4,-,N/A,,Clear,170,2013-01-10 14:53:00
9:53 AM,39.0,27.0,62,30.00,10.0,SSE,8.1,-,N/A,,Mostly Cloudy,160,2013-01-10 15:53:00
10:26 AM,39.2,28.4,65,29.93,10.0,South,13.8,24.2,N/A,,Overcast,170,2013-01-10 16:26:00
10:53 AM,37.9,30.9,76,29.98,10.0,SSW,18.4,33.4,N/A,,Overcast,200,2013-01-10 16:53:00
11:51 AM,35.6,33.8,93,29.88,1.8,South,9.2,-,N/A,,Overcast,170,2013-01-10 17:51:00
11:52 AM,35.1,34.0,96,29.94,1.8,South,9.2,-,N/A,,Overcast,170,2013-01-10 17:52:00
12:03 PM,35.6,33.8,93,29.86,1.2,SSE,9.2,-,N/A,,Overcast,160,2013-01-10 18:03:00
12:11 PM,35.6,33.8,93,29.85,1.0,South,10.4,-,N/A,,Overcast,170,2013-01-10 18:11:00
12:27 PM,35.6,33.8,93,29.82,1.0,SSE,11.5,-,N/A,,Overcast,150,2013-01-10 18:27:00
12:38 PM,35.6,33.8,93,29.82,1.5,SSE,11.5,-,N/A,,Overcast,160,2013-01-10 18:38:00
12:46 PM,35.6,33.8,93,29.81,3.0,SSE,11.5,-,N/A,,Overcast,160,2013-01-10 18:46:00
12:53 PM,35.1,34.0,96,29.85,4.0,SSE,12.7,-,N/A,,Overcast,160,2013-01-10 18:53:00
1:15 PM,35.6,33.8,93,29.78,10.0,SSE,12.7,-,N/A,,Overcast,160,2013-01-10 19:15:00
1:53 PM,36.0,33.1,89,29.80,10.0,South,16.1,24.2,N/A,,Overcast,170,2013-01-10 19:53:00
2:53 PM,36.0,34.0,93,29.76,10.0,South,9.2,-,N/A,,Overcast,180,2013-01-10 20:53:00
3:53 PM,35.1,34.0,96,29.76,10.0,South,10.4,-,N/A,,Overcast,170,2013-01-10 21:53:00
4:53 PM,35.1,34.0,96,29.74,10.0,South,18.4,25.3,N/A,,Overcast,180,2013-01-10 22:53:00
5:39 PM,33.8,33.8,100,29.68,6.0,SSW,12.7,31.1,N/A,,Overcast,200,2013-01-10 23:39:00
5:53 PM,34.0,33.1,96,29.73,5.0,South,10.4,-,N/A,,Overcast,190,2013-01-10 23:53:00
6:53 PM,34.0,33.1,96,29.71,4.0,South,10.4,23.0,N/A,,Overcast,190,2013-01-11 00:53:00
7:53 PM,33.1,33.1,100,29.69,7.0,SSW,8.1,-,N/A,,Overcast,200,2013-01-11 01:53:00
8:22 PM,33.8,33.8,100,29.62,1.8,South,10.4,-,N/A,,Overcast,190,2013-01-11 02:22:00
8:42 PM,33.8,33.8,100,29.62,2.0,South,10.4,-,N/A,,Overcast,180,2013-01-11 02:42:00
8:53 PM,33.1,33.1,100,29.67,2.5,South,9.2,-,N/A,,Overcast,180,2013-01-11 02:53:00
9:08 PM,33.8,33.8,100,29.62,1.5,South,12.7,-,N/A,,Overcast,180,2013-01-11 03:08:00
9:44 PM,33.8,33.8,100,29.60,1.0,South,10.4,-,N/A,,Overcast,180,2013-01-11 03:44:00
9:51 PM,33.8,33.8,100,29.60,0.8,South,9.2,-,N/A,,Overcast,170,2013-01-11 03:51:00
9:53 PM,33.1,33.1,100,29.64,0.8,South,10.4,-,N/A,,Overcast,170,2013-01-11 03:53:00
10:30 PM,33.8,33.8,100,29.59,1.0,South,11.5,-,N/A,,Overcast,180,2013-01-11 04:30:00
10:37 PM,33.8,33.8,100,29.58,1.5,South,12.7,24.2,N/A,,Overcast,180,2013-01-11 04:37:00
10:53 PM,34.0,34.0,100,29.62,1.2,South,16.1,31.1,N/A,,Overcast,180,2013-01-11 04:53:00
11:21 PM,33.8,33.8,100,29.56,2.0,South,10.4,24.2,N/A,,Overcast,190,2013-01-11 05:21:00
11:40 PM,33.8,33.8,100,29.57,4.0,South,13.8,27.6,N/A,,Overcast,190,2013-01-11 05:40:00
11:53 PM,34.0,34.0,100,29.62,6.0,SSW,15.0,25.3,N/A,,Overcast,200,2013-01-11 05:53:00